Stations météo

Publicité
Calvi, France (7754): Température de l'air & dewpoint: 15.10.2017 19:00:00 - 21.10.2017 19:00:00 (CEST)Calvi, France (7754): Température de l'air 5cm: 15.10.2017 19:00:00 - 21.10.2017 19:00:00 (CEST)Calvi, France (7754): Vitesse du vent & gusts: 15.10.2017 19:00:00 - 21.10.2017 19:00:00 (CEST)Calvi, France (7754): Direction du vent: 15.10.2017 19:00:00 - 21.10.2017 19:00:00 (CEST)Calvi, France (7754): reduced air pressure: 15.10.2017 19:00:00 - 21.10.2017 19:00:00 (CEST)Calvi, France (7754): visibility: 15.10.2017 19:00:00 - 21.10.2017 19:00:00 (CEST)Calvi, France (7754): Ensoleillement: 15.10.2017 19:00:00 - 21.10.2017 19:00:00 (CEST)Calvi, France (7754): Quantités de précipitations: 15.10.2017 19:00:00 - 21.10.2017 19:00:00 (CEST)
Date & Time tt [°C] td [°C] tt 5cm [°C] ff [km/h] ff [knt] fx [km/h] fx [knt] dd ppp [hPa] vv [km] sd [min] rr [mm]
21.10.2017 19:00:00 21,8 15,2 21,2 12 7 34 18 SSW 1018,9 42 0 0,0
21.10.2017 18:00:00 23,2 14,2 23,2 15 8 27 15 SSW 1018,8 10 52 0,0
21.10.2017 17:00:00 25,0 13,5 27,3 16 9 34 18 SW 1018,9 10 60 0,0
21.10.2017 16:00:00 25,8 13,3 28,9 18 10 33 18 SW 1019,0 10 60 0,0
21.10.2017 15:00:00 26,4 13,2 28,5 21 11 32 17 SW 1019,4 10 60 0,0
21.10.2017 14:00:00 27,0 12,6 28,5 16 9 31 17 SW 1019,9 10 60 0,0
21.10.2017 13:00:00 26,3 14,1 29,3 14 8 21 12 ENE 1020,4 52 60 0,0
21.10.2017 12:00:00 24,1 13,0 26,9 9 5 14 8 N 1021,0 10 60 0,0
21.10.2017 11:00:00 22,9 11,9 21,6 9 5 13 7 N 1021,2 10 60 0,0
21.10.2017 10:00:00 21,0 10,2 16,4 4 2 12 7 - 1021,0 10 60 0,0
21.10.2017 09:00:00 16,3 10,2 12,7 9 5 15 8 S 1020,8 10 20 0,0
21.10.2017 08:00:00 13,0 9,1 11,8 9 5 15 8 SSW 1020,7 10 0 0,0
21.10.2017 07:00:00 13,5 8,8 12,0 8 4 16 8 S 1020,4 29 0 0,0
21.10.2017 06:00:00 13,2 9,1 11,8 7 4 16 9 SSW 1020,3 37 0 0,0
21.10.2017 05:00:00 13,1 9,0 11,9 11 6 16 8 SSW 1020,4 10 0 0,0
21.10.2017 04:00:00 12,7 8,8 11,7 7 4 11 6 S 1020,3 33 0 0,0
21.10.2017 03:00:00 13,6 9,0 12,9 8 4 11 6 S 1020,4 10 0 0,0
21.10.2017 02:00:00 14,8 9,4 12,9 9 5 16 9 S 1020,6 10 0 0,0
21.10.2017 01:00:00 14,1 9,9 12,6 8 4 12 7 S 1020,6 10 0 0,0
21.10.2017 00:00:00 14,5 10,1 13,4 8 4 15 8 S 1020,5 10 0 0,0
20.10.2017 23:00:00 14,5 10,9 13,5 8 4 14 7 S 1020,4 10 0 0,0
20.10.2017 22:00:00 15,4 11,4 14,6 9 5 15 8 SSW 1020,0 10 0 0,0
20.10.2017 21:00:00 15,1 11,7 14,7 5 3 11 6 - 1019,9 10 0 0,0
20.10.2017 20:00:00 16,1 12,6 15,4 4 2 11 6 S 1019,4 23 0 0,0
20.10.2017 19:00:00 18,4 15,1 17,7 4 2 7 4 S 1018,6 18 0 0,0
20.10.2017 18:00:00 21,4 17,2 21,5 4 2 18 10 NW 1018,2 32 53 0,0
20.10.2017 17:00:00 22,7 17,2 25,2 15 8 30 16 N 1017,9 30 60 0,0
20.10.2017 16:00:00 23,7 15,5 26,9 24 13 32 17 N 1017,3 10 60 0,0
20.10.2017 15:00:00 24,9 13,8 27,5 18 10 26 14 N 1017,2 10 60 0,0
20.10.2017 14:00:00 25,4 11,9 26,9 15 8 25 14 N 1017,2 10 60 0,0
20.10.2017 13:00:00 24,7 14,5 28,0 13 7 21 11 N 1017,5 10 60 0,0
20.10.2017 12:00:00 23,8 13,6 27,1 11 6 16 9 N 1017,7 10 60 0,0
20.10.2017 11:00:00 23,4 13,6 21,2 8 5 13 7 N 1017,7 43 60 0,0
20.10.2017 10:00:00 21,2 8,1 16,1 4 2 7 4 NNE 1017,3 52 60 0,0
20.10.2017 09:00:00 16,0 7,2 12,3 6 3 12 7 S 1017,1 28 19 0,0
20.10.2017 08:00:00 14,4 6,5 12,1 11 6 17 9 S 1016,3 45 0 0,0
20.10.2017 07:00:00 14,1 6,2 11,9 11 6 14 7 SSW 1015,8 54 0 0,0
20.10.2017 06:00:00 13,8 5,9 11,7 11 6 18 10 S 1015,2 57 0 0,0
20.10.2017 05:00:00 12,6 5,0 10,9 8 4 14 8 S 1014,9 10 0 0,0
20.10.2017 04:00:00 12,4 5,3 11,2 5 3 13 7 SSE 1014,8 60 0 0,0
20.10.2017 03:00:00 14,4 5,5 12,3 8 4 13 7 SSW 1015,0 10 0 0,0
20.10.2017 02:00:00 14,1 6,2 11,1 7 4 15 8 SW 1015,0 58 0 0,0
20.10.2017 01:00:00 14,7 5,7 12,9 13 7 16 9 S 1014,6 60 0 0,0
20.10.2017 00:00:00 13,7 5,8 12,3 9 5 15 8 S 1014,1 10 0 0,0
19.10.2017 23:00:00 14,2 6,3 13,5 7 4 17 9 S 1013,8 58 0 0,0
19.10.2017 22:00:00 15,0 7,0 14,4 11 6 15 8 S 1014,1 55 0 0,0
19.10.2017 21:00:00 15,3 8,1 14,7 5 3 13 7 SSW 1013,7 54 0 0,0
19.10.2017 20:00:00 15,6 9,3 14,4 8 4 13 7 S 1013,3 31 0 0,0
19.10.2017 19:00:00 17,9 11,2 16,9 8 4 9 5 SW 1013,0 26 0 0,0
19.10.2017 18:00:00 21,1 12,8 20,7 0 0 8 4 N 1013,3 51 0 0,0
19.10.2017 17:00:00 21,7 13,6 22,7 6 4 13 7 NNE 1013,4 54 23 0,0
19.10.2017 16:00:00 23,1 15,4 24,8 8 4 17 9 N 1013,6 10 55 0,0
19.10.2017 15:00:00 22,4 15,5 24,9 11 6 21 11 N 1014,0 10 60 0,0
19.10.2017 14:00:00 22,5 14,1 24,3 13 7 19 11 N 1014,6 10 60 0,0
19.10.2017 13:00:00 23,5 13,4 24,7 8 4 19 10 N 1015,3 10 57 0,0
19.10.2017 12:00:00 22,5 14,1 26,1 8 4 19 11 NNW 1015,8 10 60 0,0
19.10.2017 11:00:00 22,8 15,1 20,9 4 2 9 5 NE 1015,7 45 60 0,0
19.10.2017 10:00:00 20,7 6,6 15,6 4 2 8 5 - 1015,8 10 60 0,0
19.10.2017 09:00:00 16,3 5,0 10,6 8 4 10 5 SSE 1015,7 10 26 0,0
19.10.2017 08:00:00 11,7 3,9 9,7 5 3 16 8 SSW 1015,4 10 0 0,0
19.10.2017 07:00:00 11,3 3,1 9,8 6 3 14 8 S 1015,2 47 0 0,0
19.10.2017 06:00:00 11,8 4,3 11,1 8 4 14 8 S 1015,1 10 0 0,0
19.10.2017 05:00:00 12,7 5,4 11,0 5 3 12 6 SSW 1015,4 10 0 0,0
19.10.2017 04:00:00 11,7 5,1 11,1 8 4 13 7 S 1015,6 10 0 0,0
19.10.2017 03:00:00 12,6 7,5 11,2 6 3 14 8 S 1016,3 31 0 0,0
19.10.2017 02:00:00 14,5 8,2 12,0 13 7 17 9 S 1016,5 10 0 0,0
19.10.2017 01:00:00 13,3 10,3 12,1 5 3 12 6 SSW 1017,0 10 0 0,0
19.10.2017 00:00:00 13,7 10,1 13,2 10 5 15 8 SSE 1017,3 22 0 0,0
18.10.2017 23:00:00 15,1 12,2 12,9 12 6 16 9 S 1017,8 18 0 0,0
18.10.2017 22:00:00 14,2 12,1 13,4 6 3 10 5 SSE 1017,5 12 0 0,0
18.10.2017 21:00:00 14,4 12,3 13,5 5 3 11 6 SSW 1017,4 13 0 0,0
18.10.2017 20:00:00 15,9 13,4 15,1 8 5 12 6 S 1017,5 15 0 0,0
18.10.2017 19:00:00 17,1 13,8 16,3 6 3 10 5 S 1017,1 15 0 0,0
18.10.2017 18:00:00 20,0 15,4 20,4 4 2 13 7 - 1017,0 10 55 0,0
18.10.2017 17:00:00 21,1 15,6 24,8 5 3 20 11 - 1017,2 10 60 0,0
18.10.2017 16:00:00 21,3 15,8 25,5 13 7 23 12 N 1017,7 10 60 0,0
18.10.2017 15:00:00 21,4 16,1 23,8 13 7 21 12 N 1017,9 10 60 0,0
18.10.2017 14:00:00 21,4 15,9 23,7 15 8 24 13 N 1018,6 10 60 0,0
18.10.2017 13:00:00 21,4 15,9 24,8 13 7 26 14 N 1019,2 10 60 0,0
18.10.2017 12:00:00 21,0 16,0 24,7 15 8 22 12 N 1019,7 10 60 0,0
18.10.2017 11:00:00 20,4 14,5 19,2 10 6 16 8 N 1019,6 25 60 0,0
18.10.2017 10:00:00 19,1 14,6 13,6 0 0 8 4 N 1019,8 10 60 0,0
18.10.2017 09:00:00 13,1 10,1 11,2 8 4 16 9 SSE 1020,1 12 26 0,0
18.10.2017 08:00:00 11,9 9,3 10,4 11 6 16 9 S 1020,0 15 0 0,0
18.10.2017 07:00:00 11,8 10,2 10,1 10 5 13 7 S 1020,5 11 0 0,0
18.10.2017 06:00:00 11,3 9,7 10,6 8 4 16 8 S 1020,9 10 0 0,0
18.10.2017 05:00:00 11,2 9,1 10,8 9 5 14 8 SSE 1021,2 10 0 0,0
18.10.2017 04:00:00 11,9 10,5 11,1 8 4 14 8 SSW 1021,1 10 0 0,0
18.10.2017 03:00:00 13,3 11,7 11,1 10 6 14 8 S 1021,6 11 0 0,0
18.10.2017 02:00:00 12,4 10,5 11,7 9 5 13 7 SSE 1021,8 10 0 0,0
18.10.2017 01:00:00 13,0 11,1 11,8 11 6 13 7 S 1021,9 9 0 0,0
18.10.2017 00:00:00 12,8 11,2 12,2 5 3 11 6 S 1022,3 9 0 0,0
17.10.2017 23:00:00 13,8 12,4 12,6 8 4 11 6 S 1022,5 10 0 0,0
17.10.2017 22:00:00 13,8 11,8 13,3 5 3 11 6 - 1022,6 9 0 0,0
17.10.2017 21:00:00 14,9 12,8 14,5 8 4 13 7 S 1022,7 10 0 0,0
17.10.2017 20:00:00 15,8 13,5 15,1 9 5 12 7 S 1022,9 10 0 0,0
17.10.2017 19:00:00 17,3 13,8 16,1 5 3 10 5 SW 1022,8 10 0 0,0
17.10.2017 18:00:00 19,8 15,2 20,2 5 3 14 7 - 1022,5 10 56 0,0
17.10.2017 17:00:00 20,8 15,3 24,2 9 5 18 10 NNW 1022,7 10 60 0,0
17.10.2017 16:00:00 21,3 15,8 25,4 13 7 23 12 N 1023,1 10 60 0,0
17.10.2017 15:00:00 21,7 15,3 24,4 15 8 26 14 N 1023,4 10 60 0,0
17.10.2017 14:00:00 21,7 15,5 23,5 15 8 26 14 NNW 1023,9 20 60 0,0
17.10.2017 13:00:00 21,4 14,8 25,1 15 8 24 13 NNW 1024,6 10 60 0,0
17.10.2017 12:00:00 21,6 14,3 26,6 13 7 19 11 NNW 1025,1 10 60 0,0
17.10.2017 11:00:00 21,8 13,2 20,5 2 1 6 3 - 1025,5 10 60 0,0
17.10.2017 10:00:00 19,5 12,0 14,1 4 2 8 5 S 1025,8 10 60 0,0
17.10.2017 09:00:00 13,3 9,5 10,8 6 3 18 10 S 1025,8 21 13 0,0
17.10.2017 08:00:00 10,9 7,8 9,9 8 4 16 8 S 1025,7 10 0 0,0
17.10.2017 07:00:00 11,3 8,2 9,2 5 3 17 9 S 1025,6 10 0 0,0
17.10.2017 06:00:00 10,6 7,7 9,3 4 2 12 7 S 1025,6 14 0 0,0
17.10.2017 05:00:00 10,5 7,7 9,9 9 5 11 6 S 1025,7 26 0 0,0
17.10.2017 04:00:00 12,0 9,2 11,0 8 4 16 9 S 1025,7 10 0 0,0
17.10.2017 03:00:00 11,9 9,6 10,4 8 4 10 5 S 1026,3 10 0 0,0
17.10.2017 02:00:00 11,6 9,7 10,9 5 3 14 8 S 1026,6 8 0 0,0
17.10.2017 01:00:00 12,6 11,0 11,6 5 3 10 6 - 1026,9 10 0 0,0
17.10.2017 00:00:00 12,6 10,8 12,1 3 2 14 7 S 1027,3 13 0 0,0
16.10.2017 23:00:00 12,9 11,1 11,8 8 5 13 7 S 1027,4 13 0 0,0
16.10.2017 22:00:00 12,7 10,9 11,8 5 3 8 4 S 1027,2 12 0 0,0
16.10.2017 21:00:00 13,8 11,8 12,9 3 2 11 6 W 1027,0 13 0 0,0
16.10.2017 20:00:00 15,7 13,4 14,9 8 5 12 6 S 1027,1 11 0 0,0
16.10.2017 19:00:00 17,4 15,0 16,3 5 3 9 5 S 1026,8 13 0 0,0
16.10.2017 18:00:00 19,9 16,1 20,4 5 3 16 9 NW 1026,7 10 57 0,0
16.10.2017 17:00:00 21,2 16,2 24,9 11 6 19 10 N 1026,7 10 60 0,0
16.10.2017 16:00:00 21,3 16,0 25,7 13 7 23 12 N 1027,0 20 60 0,0
16.10.2017 15:00:00 21,5 15,8 23,6 13 7 23 12 NNW 1027,2 10 60 0,0
16.10.2017 14:00:00 21,4 15,7 23,8 13 7 21 11 NNW 1027,7 10 60 0,0
16.10.2017 13:00:00 21,4 15,5 25,2 11 6 22 12 NNW 1028,2 10 60 0,0
16.10.2017 12:00:00 21,0 14,9 25,1 10 5 20 11 N 1028,6 29 60 0,0
16.10.2017 11:00:00 20,3 14,4 19,4 8 4 13 7 N 1028,7 31 60 0,0
16.10.2017 10:00:00 18,8 11,1 13,4 0 0 12 6 N 1028,6 10 60 0,0
16.10.2017 09:00:00 13,0 8,7 9,2 9 5 14 8 S 1028,4 10 28 0,0
16.10.2017 08:00:00 9,9 7,5 9,0 4 2 11 6 - 1027,8 10 0 0,0
16.10.2017 07:00:00 11,3 7,8 9,4 8 4 16 9 S 1027,7 11 0 0,0
16.10.2017 06:00:00 10,3 7,9 9,8 8 4 11 6 S 1027,8 10 0 0,0
16.10.2017 05:00:00 10,7 8,8 10,0 5 3 10 6 S 1027,8 10 0 0,2
16.10.2017 04:00:00 11,5 9,6 10,8 9 5 11 6 S 1027,9 10 0 0,0
16.10.2017 03:00:00 12,6 10,7 11,5 8 4 12 6 S 1028,4 9 0 0,0
16.10.2017 02:00:00 12,0 10,2 11,8 11 6 13 7 S 1028,6 10 0 0,0
16.10.2017 01:00:00 13,1 10,8 12,1 10 5 14 8 S 1028,8 9 0 0,0
16.10.2017 00:00:00 12,5 10,7 11,9 5 3 11 6 S 1029,0 8 0 0,0
15.10.2017 23:00:00 12,7 10,9 11,9 8 4 11 6 S 1028,8 8 0 0,0
15.10.2017 22:00:00 13,2 11,6 12,6 5 3 9 5 S 1028,5 7 0 0,0
15.10.2017 21:00:00 14,2 12,2 13,3 8 4 13 7 SSW 1028,2 7 0 0,0
15.10.2017 20:00:00 15,8 13,5 15,1 10 6 12 7 S 1028,2 8 0 0,0
15.10.2017 19:00:00 17,3 13,6 16,2 5 3 7 4 SW 1027,9 10 0 0,0

tt = Température de l'air
td = dewpoint
tt 5cm = Température de l'air 5cm
ff = Vitesse du vent
fx = gusts
dd = Direction du vent
ppp = reduced air pressure
vv = visibility
sd = Ensoleillement
rr = Quantités de précipitations

stations d'obs. à proximité